Location: Lecco
(45.8566°N, 9.3977°E)
Time: 02:27:00
(UTC+01:00)

Envisat - Pass Details

Date: 25 October 2019
Orbit: 764 x 766 km, 98.1° (Epoch: 14 November)

Event Time Altitude Azimuth Distance (km) Brightness Sun altitude
Rises 19:43:16 0° 177° (S) 3,219 6.2 -15.1°
Reaches altitude 10° 19:45:37 10° 182° (S) 2,297 5.5 -15.5°
Maximum altitude 19:50:34 55° 260° (W) 920 3.8 -16.3°
Drops below altitude 10° 19:55:35 10° 338° (NNW) 2,313 5.8 -17.2°
Sets 19:57:57 0° 343° (NNW) 3,243 6.5 -17.6°
